M I D A S
Marine Information and Data Acquisition System
Tripno 247 of the Zeeleeuw from 2002-04-22 07:12:33 to 2002-04-22 14:24:39
Back to CruiseResearch ActivitiesStationsMapUnderway DataData graphs

EquipmentUnitsComment
TimeDGPSUTC
LatitudeDGPSDM.mWGS84
LongitudeDGPSDM.mWGS84
TemperatureSBE03/SBE38deg celciusITS90
ConductivitySBE21S/mITS90
SalinitySBE21 Practical Salinity Units
ChlorophylAChelsea fluorimeterg/lCalibrated in Aceton
Missing or incorrect values are displayed as -999
Sea surface data collected by the RV Zeeleeuw from 2002-04-22 07:12:33 to 2002-04-22 14:24:39
                                                                                    Next 1000 lines
Time Latitude Longitude Temperature Conductivity Salinity ChlorophylA
2002-04-22 07:12:42 51°15.944 2°53.657 16.998087 0.083824 0.393763  
2002-04-22 07:12:47 51°15.961 2°53.644 17.158742 0.083824 0.393768  
2002-04-22 07:12:52 51°15.978 2°53.628 17.158742 0.083824 0.393768  
2002-04-22 07:12:57 51°15.995 2°53.616 17.177243 0.083824 0.393758  
2002-04-22 07:13:02 51°16.011 2°53.599 17.172397 0.083824 0.393773  
2002-04-22 07:13:07 51°16.029 2°53.587 17.741197 0.083824 0.393758  
2002-04-22 07:13:12 51°16.045 2°53.571 17.697255 0.083824 0.393773  
2002-04-22 07:13:17 51°16.062 2°53.558 17.660901 0.083824 0.393773  
2002-04-22 07:13:22 51°16.079 2°53.542 17.660901 0.083824 0.393773  
2002-04-22 07:13:27 51°16.096 2°53.53 17.834465 0.083824 0.393773  
2002-04-22 07:13:32 51°16.112 2°53.514 18.052837 0.083824 0.393784  
2002-04-22 07:13:37 51°16.129 2°53.501 18.035817 0.083824 0.393768  
2002-04-22 07:13:42 51°16.146 2°53.486 17.668433 0.083824 0.393789  
2002-04-22 07:13:48 51°16.167 2°53.47 18.462717 0.083824 0.393768  
2002-04-22 07:13:52 51°16.179 2°53.458 18.462717 0.083824 0.393768  
2002-04-22 07:13:57 51°16.196 2°53.443 18.231565 0.083824 0.393794  
2002-04-22 07:14:02 51°16.213 2°53.429 18.611508 0.083824 0.393784  
2002-04-22 07:14:07 51°16.229 2°53.415 18.665929 0.083824 0.393784  
2002-04-22 07:14:12 51°16.246 2°53.401 18.738479 0.083824 0.393794  
2002-04-22 07:14:17 51°16.263 2°53.386 18.495924 0.083824 0.393784  
2002-04-22 07:14:22 51°16.28 2°53.372 18.495924 0.083824 0.393784  
2002-04-22 07:14:27 51°16.296 2°53.357 18.720101 0.083824 0.393799  
2002-04-22 07:14:32 51°16.313 2°53.343 19.594093 0.083824 0.393779  
2002-04-22 07:14:37 51°16.329 2°53.327 19.317364 0.083824 0.393804  
2002-04-22 07:14:42 51°16.347 2°53.314 19.427559 0.083824 0.393799  
2002-04-22 07:14:47 51°16.363 2°53.298 19.610167 0.083824 0.393789  
2002-04-22 07:14:52 51°16.38 2°53.285 19.610167 0.083824 0.393789  
2002-04-22 07:14:58 51°16.4 2°53.266 19.683899 0.083824 0.393804  
2002-04-22 07:15:02 51°16.414 2°53.256 20.011843 0.083824 0.393794  
2002-04-22 07:15:07 51°16.431 2°53.241 19.712427 0.083824 0.393804  
2002-04-22 07:15:12 51°16.449 2°53.229 20.262558 0.083824 0.393794  
2002-04-22 07:15:18 51°16.469 2°53.211 20.40267 0.083824 0.393804  
2002-04-22 07:15:22 51°16.483 2°53.203 20.40267 0.083824 0.393804  
2002-04-22 07:15:27 51°16.5 2°53.188 20.454995 0.083824 0.393804  
2002-04-22 07:15:32 51°16.518 2°53.177 20.979037 0.083824 0.393799  
2002-04-22 07:15:37 51°16.535 2°53.162 20.496192 0.083824 0.39382  
2002-04-22 07:15:42 51°16.553 2°53.15 21.011953 0.083824 0.393804  
2002-04-22 07:15:47 51°16.569 2°53.136 20.98646 0.083824 0.393825  
2002-04-22 07:15:52 51°16.587 2°53.123 20.98646 0.083824 0.393825  
2002-04-22 07:15:57 51°16.604 2°53.11 21.383301 0.083824 0.393809  
2002-04-22 07:16:02 51°16.621 2°53.097 21.320221 0.083824 0.393815  
2002-04-22 07:16:08 51°16.641 2°53.08 21.404725 0.083824 0.39382  
2002-04-22 07:16:12 51°16.655 2°53.07 21.947854 0.083824 0.393809  
2002-04-22 07:16:17 51°16.672 2°53.057 22.180294 0.083824 0.39383  
2002-04-22 07:16:22 51°16.689 2°53.042 22.180294 0.083824 0.39383  
2002-04-22 07:16:27 51°16.706 2°53.03 22.076862 0.083824 0.393815  
2002-04-22 07:16:32 51°16.722 2°53.014 22.570095 0.083824 0.39384  
2002-04-22 07:16:37 51°16.739 2°53.001 22.485358 0.083824 0.39383  
2002-04-22 07:16:42 51°16.755 2°52.984 22.804573 0.083824 0.393835  
2002-04-22 07:16:48 51°16.775 2°52.968 23.023941 0.083824 0.39384  
2002-04-22 07:16:52 51°16.787 2°52.954 23.023941 0.083824 0.39384  
2002-04-22 07:16:57 51°16.804 2°52.94 22.909719 0.083824 0.39383  
2002-04-22 07:17:02 51°16.819 2°52.923 23.139841 0.083824 0.393845  
2002-04-22 07:17:08 51°16.839 2°52.905 23.441868 0.083824 0.39383  
2002-04-22 07:17:12 51°16.851 2°52.891 23.704307 0.083824 0.393845  
2002-04-22 07:17:18 51°16.871 2°52.874 24.269968 0.083824 0.39383  
2002-04-22 07:17:22 51°16.883 2°52.86 24.269968 0.083824 0.39383  
2002-04-22 07:17:27 51°16.899 2°52.845 24.281746 0.083824 0.393835  
2002-04-22 07:17:32 51°16.915 2°52.829 24.611503 0.083824 0.39385  
2002-04-22 07:17:37 51°16.932 2°52.814 24.794028 0.083824 0.39384  
2002-04-22 07:17:42 51°16.948 2°52.797 25.123816 0.083824 0.393861  
2002-04-22 07:17:47 51°16.964 2°52.783 25.025081 0.083824 0.39384  
2002-04-22 07:17:52 51°16.98 2°52.767 25.025081 0.083824 0.39384  
2002-04-22 07:17:57 51°16.997 2°52.752 25.459998 0.083824 0.393856  
2002-04-22 07:18:02 51°17.013 2°52.736 25.181209 0.083824 0.393856  
2002-04-22 07:18:08 51°17.033 2°52.718 25.941879 0.083824 0.393845  
2002-04-22 07:18:12 51°17.046 2°52.705 25.869716 0.083824 0.393866  
2002-04-22 07:18:18 51°17.066 2°52.687 26.104731 0.083824 0.39385  
2002-04-22 07:18:22 51°17.079 2°52.674 26.104731 0.083824 0.39385  
2002-04-22 07:18:28 51°17.098 2°52.656 26.456963 0.083824 0.393866  
2002-04-22 07:18:32 51°17.112 2°52.644 26.23387 0.083824 0.393856  
2002-04-22 07:18:37 51°17.128 2°52.628 26.821476 0.083824 0.393861  
2002-04-22 07:18:42 51°17.145 2°52.614 27.07917 0.083824 0.393876  
2002-04-22 07:18:47 51°17.161 2°52.598 27.261865 0.083824 0.393866  
2002-04-22 07:18:52 51°17.178 2°52.584 27.261865 0.083824 0.393866  
2002-04-22 07:18:57 51°17.193 2°52.567 27.294429 0.083824 0.393881  
2002-04-22 07:19:02 51°17.21 2°52.553 27.863632 0.083824 0.393866  
2002-04-22 07:19:07 51°17.226 2°52.536 27.720102 0.083824 0.393881  
2002-04-22 07:19:12 51°17.242 2°52.522 27.95444 0.083824 0.393881  
2002-04-22 07:19:18 51°17.26 2°52.5 27.99906 0.083824 0.393876  
2002-04-22 07:19:22 51°17.273 2°52.488 27.99906 0.083824 0.393876  
2002-04-22 07:19:27 51°17.288 2°52.469 28.200477 0.083824 0.393886  
2002-04-22 07:19:32 51°17.304 2°52.452 28.347417 0.083824 0.393876  
2002-04-22 07:19:37 51°17.318 2°52.432 28.619521 0.083824 0.393897  
2002-04-22 07:19:42 51°17.333 2°52.415 28.834474 0.083824 0.393876  
2002-04-22 07:19:47 51°17.347 2°52.394 29.033842 0.083824 0.393892  
2002-04-22 07:19:52 51°17.362 2°52.376 29.033842 0.083824 0.393892  
2002-04-22 07:19:57 51°17.375 2°52.355 29.101858 0.083824 0.393897  
2002-04-22 07:20:02 51°17.389 2°52.335 29.245228 0.083824 0.393892  
2002-04-22 07:20:07 51°17.403 2°52.314 29.955796 0.083824 0.393902  
2002-04-22 07:20:12 51°17.416 2°52.293 29.812957 0.083824 0.393892  
2002-04-22 07:20:17 51°17.429 2°52.272 29.91635 0.083824 0.393907  
2002-04-22 07:20:22 51°17.443 2°52.251 29.91635 0.083824 0.393907  
2002-04-22 07:20:27 51°17.456 2°52.23 30.086878 0.083824 0.393897  
2002-04-22 07:20:32 51°17.47 2°52.209 30.225228 0.083824 0.393902  
2002-04-22 07:20:37 51°17.483 2°52.188 30.56862 0.083824 0.393902  
2002-04-22 07:20:43 51°17.499 2°52.164 30.762324 0.083824 0.393897  
2002-04-22 07:20:47 51°17.509 2°52.146 30.705747 0.083824 0.393917  
2002-04-22 07:20:52 51°17.522 2°52.124 30.705747 0.083824 0.393917  
2002-04-22 07:20:58 51°17.536 2°52.097 31.396994 0.083824 0.393902  
2002-04-22 07:21:02 51°17.546 2°52.079 31.708329 0.083824 0.393912  
2002-04-22 07:21:07 51°17.558 2°52.056 31.615562 0.083824 0.393922  
2002-04-22 07:21:12 51°17.57 2°52.033 31.877141 0.083824 0.393912  
2002-04-22 07:21:17 51°17.582 2°52.011 31.949681 0.083824 0.393933  
2002-04-22 07:21:22 51°17.593 2°51.988 31.949681 0.083824 0.393933  
2002-04-22 07:21:27 51°17.605 2°51.965 32.064613 0.083824 0.393917  
2002-04-22 07:21:32 51°17.616 2°51.942 32.558916 0.083824 0.393927  
2002-04-22 07:21:37 51°17.628 2°51.919 32.456235 0.083824 0.393922  
2002-04-22 07:21:42 51°17.639 2°51.895 32.992783 0.083824 0.393912  
2002-04-22 07:21:47 51°17.65 2°51.872 32.868419 0.083824 0.393933  
2002-04-22 07:21:52 51°17.661 2°51.848 32.868419 0.083824 0.393933  
2002-04-22 07:21:57 51°17.672 2°51.826 32.953614 0.083824 0.393922  
2002-04-22 07:22:02 51°17.682 2°51.801 33.374985 0.083824 0.393938  
2002-04-22 07:22:07 51°17.693 2°51.778 33.639302 0.083824 0.393933  
2002-04-22 07:22:12 51°17.703 2°51.754 33.785384 0.083824 0.393933  
2002-04-22 07:22:17 51°17.715 2°51.731 33.931093 0.083824 0.393938  
2002-04-22 07:22:22 51°17.724 2°51.706 33.931093 0.083824 0.393938  
2002-04-22 07:22:27 51°17.736 2°51.684 34.118784 0.083824 0.393933  
2002-04-22 07:22:32 51°17.746 2°51.659 34.087171 0.083824 0.393948  
2002-04-22 07:22:37 51°17.757 2°51.637 34.772064 0.083824 0.393938  
2002-04-22 07:22:42 51°17.768 2°51.613 34.805258 0.083824 0.393943  
2002-04-22 07:22:47 51°17.779 2°51.59 34.60362 0.083824 0.393948  
2002-04-22 07:22:52 51°17.789 2°51.566 34.60362 0.083824 0.393948  
2002-04-22 07:22:57 51°17.801 2°51.544 35.071401 0.083824 0.393943  
2002-04-22 07:23:02 51°17.811 2°51.52 35.33645 0.083824 0.393958  
2002-04-22 07:23:08 51°17.825 2°51.493 35.376517 0.083824 0.393948  
2002-04-22 07:23:12 51°17.833 2°51.473 35.789173 0.083725 0.393485  
2002-04-22 07:23:17 51°17.845 2°51.451 35.835524 0.083824 0.393953  
2002-04-22 07:23:22 51°17.854 2°51.427 35.835524 0.083824 0.393953  
2002-04-22 07:23:27 51°17.866 2°51.404 36.200145 0.083824 0.393953  
2002-04-22 07:23:32 51°17.876 2°51.38 35.957262 0.083824 0.393969  
2002-04-22 07:23:37 51°17.888 2°51.358 36.540915 0.083824 0.393953  
2002-04-22 07:23:42 51°17.898 2°51.333 36.700494 0.083725 0.393495  
2002-04-22 07:23:47 51°17.91 2°51.31 36.449593 0.083824 0.393963  
2002-04-22 07:23:52 51°17.919 2°51.286 36.449593 0.083824 0.393963  
2002-04-22 07:23:57 51°17.931 2°51.263 37.102735 0.083824 0.393963  
2002-04-22 07:24:02 51°17.941 2°51.238 37.068234 0.083824 0.393979  
2002-04-22 07:24:07 51°17.953 2°51.215 37.021114 0.083824 0.393969  
2002-04-22 07:24:12 51°17.962 2°51.191 37.491936 0.083824 0.393984  
2002-04-22 07:24:17 51°17.974 2°51.168 37.882796 0.083824 0.393969  
2002-04-22 07:24:22 51°17.984 2°51.143 37.882796 0.083824 0.393969  
2002-04-22 07:24:28 51°17.998 2°51.115 37.988584 0.083725 0.393506  
2002-04-22 07:24:32 51°18.006 2°51.094 38.225281 0.083824 0.393989  
2002-04-22 07:24:38 51°18.02 2°51.067 38.393714 0.083824 0.393969  
2002-04-22 07:24:42 51°18.027 2°51.047 38.745021 0.083725 0.393516  
2002-04-22 07:24:47 51°18.039 2°51.024 38.747136 0.083824 0.393984  
2002-04-22 07:24:52 51°18.049 2°50.999 38.747136 0.083824 0.393984  
2002-04-22 07:24:57 51°18.061 2°50.976 38.909792 0.083725 0.393506  
2002-04-22 07:25:02 51°18.071 2°50.951 38.55996 0.083725 0.393526  
2002-04-22 07:25:08 51°18.085 2°50.923 39.139444 0.083824 0.393989  
2002-04-22 07:25:12 51°18.093 2°50.903 39.535613 0.083824 0.394005  
2002-04-22 07:25:17 51°18.105 2°50.879 39.425761 0.083824 0.393989  
2002-04-22 07:25:22 51°18.115 2°50.854 39.425761 0.083824 0.393989  
2002-04-22 07:25:27 51°18.126 2°50.831 40.052109 0.083725 0.393521  
2002-04-22 07:25:32 51°18.136 2°50.806 39.985197 0.083824 0.394005  
2002-04-22 07:25:37 51°18.148 2°50.783 40.438653 0.083725 0.393516  
2002-04-22 07:25:42 51°18.158 2°50.758 40.3569 0.083725 0.393536  
2002-04-22 07:25:47 51°18.169 2°50.734 40.370263 0.083725 0.393516  
2002-04-22 07:25:52 51°18.179 2°50.71 40.370263 0.083725 0.393516  
2002-04-22 07:25:57 51°18.19 2°50.686 40.528723 0.083725 0.393536  
2002-04-22 07:26:02 51°18.201 2°50.661 40.990424 0.083725 0.393531  
2002-04-22 07:26:07 51°18.212 2°50.637 41.221039 0.083725 0.393526  
2002-04-22 07:26:12 51°18.222 2°50.613 41.314628 0.083725 0.393542  
2002-04-22 07:26:17 51°18.233 2°50.589 41.53821 0.083725 0.393526  
2002-04-22 07:26:22 51°18.243 2°50.565 41.53821 0.083725 0.393526  
2002-04-22 07:26:28 51°18.256 2°50.536 41.724016 0.083725 0.393547  
2002-04-22 07:26:32 51°18.265 2°50.517 41.925341 0.083725 0.393542  
2002-04-22 07:26:37 51°18.275 2°50.492 42.038415 0.083725 0.393542  
2002-04-22 07:26:42 51°18.286 2°50.468 42.145645 0.083725 0.393557  
2002-04-22 07:26:47 51°18.296 2°50.444 42.835526 0.083725 0.393536  
2002-04-22 07:26:52 51°18.307 2°50.42 42.835526 0.083725 0.393536  
2002-04-22 07:26:57 51°18.317 2°50.395 42.755813 0.083725 0.393562  
2002-04-22 07:27:02 51°18.328 2°50.371 42.754851 0.083824 0.394025  
2002-04-22 07:27:08 51°18.34 2°50.342 43.052805 0.083725 0.393552  
2002-04-22 07:27:12 51°18.349 2°50.323 43.399361 0.083725 0.393557  
2002-04-22 07:27:17 51°18.358 2°50.298 43.145307 0.083725 0.393557  
2002-04-22 07:27:22 51°18.37 2°50.275 43.145307 0.083725 0.393557  
2002-04-22 07:27:27 51°18.379 2°50.25 43.482008 0.083725 0.393567  
2002-04-22 07:27:32 51°18.391 2°50.226 43.754525 0.083725 0.393562  
2002-04-22 07:27:37 51°18.4 2°50.201 44.17744 0.083725 0.393572  
2002-04-22 07:27:42 51°18.412 2°50.177 43.963213 0.083725 0.393577  
2002-04-22 07:27:47 51°18.421 2°50.152 44.085835 0.083725 0.393572  
2002-04-22 07:27:52 51°18.433 2°50.128 44.085835 0.083725 0.393572  
2002-04-22 07:27:57 51°18.443 2°50.103 44.245009 0.083725 0.393588  
2002-04-22 07:28:02 51°18.455 2°50.08 44.625927 0.083725 0.393577  
2002-04-22 07:28:07 51°18.464 2°50.054 44.822502 0.083725 0.393593  
2002-04-22 07:28:12 51°18.476 2°50.031 45.053567 0.083725 0.393588  
2002-04-22 07:28:17 51°18.486 2°50.005 45.28969 0.083725 0.393588  
2002-04-22 07:28:22 51°18.497 2°49.981 45.28969 0.083725 0.393588  
2002-04-22 07:28:27 51°18.507 2°49.956 45.573614 0.083824 0.394087  
2002-04-22 07:28:32 51°18.519 2°49.932 45.377466 0.083725 0.393598  
2002-04-22 07:28:38 51°18.531 2°49.902 45.743676 0.083725 0.393619  
2002-04-22 07:28:42 51°18.54 2°49.883 45.860155 0.083725 0.393608  
2002-04-22 07:28:47 51°18.549 2°49.858 46.080013 0.083725 0.393603  
2002-04-22 07:28:52 51°18.561 2°49.834 46.080013 0.083725 0.393603  
2002-04-22 07:28:57 51°18.57 2°49.808 46.223838 0.083725 0.393629  
2002-04-22 07:29:02 51°18.582 2°49.785 46.393905 0.083725 0.393619  
2002-04-22 07:29:07 51°18.591 2°49.759 46.41287 0.083725 0.393639  
2002-04-22 07:29:12 51°18.602 2°49.735 46.640323 0.083725 0.393634  
2002-04-22 07:29:17 51°18.611 2°49.71 46.994224 0.083725 0.393644  
2002-04-22 07:29:22 51°18.623 2°49.686 46.994224 0.083725 0.393644  
2002-04-22 07:29:28 51°18.633 2°49.656 46.769744 0.083725 0.393649  
2002-04-22 07:29:32 51°18.643 2°49.637 47.00074 0.083725 0.393644  
2002-04-22 07:29:37 51°18.651 2°49.612 47.231772 0.083725 0.39367  
2002-04-22 07:29:42 51°18.663 2°49.589 47.461674 0.083725 0.393655  
2002-04-22 07:29:47 51°18.672 2°49.564 47.611207 0.083725 0.393675  
2002-04-22 07:29:52 51°18.682 2°49.54 47.611207 0.083725 0.393675  
2002-04-22 07:29:57 51°18.691 2°49.515 48.05755 0.083725 0.39368  
2002-04-22 07:30:02 51°18.702 2°49.492 47.978017 0.083725 0.393675  
2002-04-22 07:30:08 51°18.713 2°49.462 48.337791 0.083725 0.393701  
2002-04-22 07:30:12 51°18.722 2°49.444 48.478205 0.083725 0.39368  
2002-04-22 07:30:17 51°18.731 2°49.419 48.257416 0.083725 0.393706  
2002-04-22 07:30:22 51°18.742 2°49.397 48.257416 0.083725 0.393706  
2002-04-22 07:30:28 51°18.753 2°49.367 48.423517 0.083725 0.393711  
2002-04-22 07:30:32 51°18.762 2°49.349 48.585765 0.083725 0.393701  
2002-04-22 07:30:37 51°18.771 2°49.324 48.529124 0.083725 0.393726  
2002-04-22 07:30:42 51°18.782 2°49.301 49.301711 0.083725 0.393716  
2002-04-22 07:30:47 51°18.791 2°49.277 49.369616 0.083725 0.393732  
2002-04-22 07:30:52 51°18.802 2°49.253 49.369616 0.083725 0.393732  
2002-04-22 07:30:57 51°18.811 2°49.229 49.428827 0.083725 0.393726  
2002-04-22 07:31:02 51°18.822 2°49.205 49.240298 0.083725 0.393737  
2002-04-22 07:31:07 51°18.831 2°49.181 49.77586 0.083725 0.393752  
2002-04-22 07:31:12 51°18.842 2°49.158 49.777659 0.083725 0.393742  
2002-04-22 07:31:17 51°18.852 2°49.134 49.83156 0.083725 0.393773  
2002-04-22 07:31:22 51°18.862 2°49.11 49.83156 0.083725 0.393773  
2002-04-22 07:31:28 51°18.873 2°49.081 49.609129 0.083725 0.393762  
2002-04-22 07:31:32 51°18.882 2°49.062 -999 0.083725 0.393773  
2002-04-22 07:31:37 51°18.892 2°49.038 -999 0.083725 0.393788  
2002-04-22 07:31:42 51°18.902 2°49.014 -999 0.083725 0.393778  
2002-04-22 07:31:47 51°18.912 2°48.99 -999 0.083725 0.393798  
2002-04-22 07:31:52 51°18.922 2°48.965 -999 0.083725 0.393798  
2002-04-22 07:31:57 51°18.932 2°48.942 -999 0.083725 0.393788  
2002-04-22 07:32:02 51°18.942 2°48.917 -999 0.083725 0.393809  
2002-04-22 07:32:07 51°18.953 2°48.893 -999 0.083725 0.393814  
2002-04-22 07:32:12 51°18.962 2°48.868 -999 0.083725 0.393809  
2002-04-22 07:32:17 51°18.973 2°48.844 -999 0.083725 0.393834  
2002-04-22 07:32:22 51°18.982 2°48.819 -999 0.083725 0.393834  
2002-04-22 07:32:27 51°18.993 2°48.795 -999 0.083725 0.393819  
2002-04-22 07:32:32 51°19.002 2°48.77 -999 0.083725 0.39385  
2002-04-22 07:32:37 51°19.013 2°48.746 -999 0.083725 0.39384  
2002-04-22 07:32:42 51°19.021 2°48.72 -999 0.083725 0.39385  
2002-04-22 07:32:47 51°19.032 2°48.697 -999 0.083725 0.39387  
2002-04-22 07:32:52 51°19.041 2°48.672 -999 0.083725 0.39387  
2002-04-22 07:32:57 51°19.052 2°48.648 -999 0.083725 0.39386  
2002-04-22 07:33:02 51°19.061 2°48.623 -999 0.083725 0.393881  
2002-04-22 07:33:07 51°19.073 2°48.6 -999 0.083725 0.39386  
2002-04-22 07:33:12 51°19.082 2°48.575 -999 0.083725 0.393891  
2002-04-22 07:33:17 51°19.093 2°48.552 -999 0.083725 0.393881  
2002-04-22 07:33:22 51°19.103 2°48.528 -999 0.083725 0.393881  
2002-04-22 07:33:28 51°19.116 2°48.5 -999 0.083725 0.393891  
2002-04-22 07:33:32 51°19.124 2°48.48 -999 0.083725 0.393901  
2002-04-22 07:33:37 51°19.135 2°48.456 -999 0.083725 0.393896  
2002-04-22 07:33:42 51°19.144 2°48.431 -999 0.083725 0.393922  
2002-04-22 07:33:47 51°19.155 2°48.408 -999 0.083725 0.393917  
2002-04-22 07:33:52 51°19.165 2°48.384 -999 0.083725 0.393917  
2002-04-22 07:33:57 51°19.176 2°48.36 -999 0.083626 0.393458  
2002-04-22 07:34:03 51°19.187 2°48.33 -999 0.083725 0.393953  
2002-04-22 07:34:07 51°19.197 2°48.312 -999 0.083725 0.393932  
2002-04-22 07:34:12 51°19.205 2°48.287 -999 0.083725 0.393973  
2002-04-22 07:34:18 51°19.219 2°48.259 -999 0.083725 0.393958  
2002-04-22 07:34:22 51°19.225 2°48.238 -999 0.083725 0.393958  
2002-04-22 07:34:27 51°19.236 2°48.215 -999 0.083725 0.393968  
2002-04-22 07:34:32 51°19.245 2°48.19 -999 0.083725 0.393984  
2002-04-22 07:34:37 51°19.255 2°48.166 -999 0.083725 0.393979  
2002-04-22 07:34:42 51°19.265 2°48.142 -999 0.083725 0.393994  
2002-04-22 07:34:47 51°19.276 2°48.118 -999 0.083626 0.39351  
2002-04-22 07:34:52 51°19.286 2°48.093 -999 0.083626 0.39351  
2002-04-22 07:34:57 51°19.296 2°48.07 -999 0.083626 0.393525  
2002-04-22 07:35:02 51°19.306 2°48.045 -999 0.083626 0.393541  
2002-04-22 07:35:08 51°19.32 2°48.017 -999 0.083626 0.39353  
2002-04-22 07:35:12 51°19.327 2°47.997 -999 0.083626 0.393551  
2002-04-22 07:35:17 51°19.338 2°47.973 -999 0.083626 0.393551  
2002-04-22 07:35:22 51°19.348 2°47.949 -999 0.083626 0.393551  
2002-04-22 07:35:28 51°19.362 2°47.92 -999 0.083626 0.393566  
2002-04-22 07:35:32 51°19.369 2°47.9 -999 0.083626 0.393577  
2002-04-22 07:35:37 51°19.38 2°47.876 -999 0.083626 0.393572  
2002-04-22 07:35:43 51°19.392 2°47.846 49.099548 0.083626 0.393592  
2002-04-22 07:35:47 51°19.4 2°47.826 48.29011 0.083626 0.393577  
2002-04-22 07:35:52 51°19.41 2°47.802 48.29011 0.083626 0.393577  
2002-04-22 07:35:58 51°19.422 2°47.772 49.560364 0.083626 0.393613  
2002-04-22 07:36:02 51°19.431 2°47.753 -999 0.083626 0.393592  
2002-04-22 07:36:07 51°19.44 2°47.727 -999 0.083626 0.393613  
2002-04-22 07:36:12 51°19.451 2°47.703 -999 0.083626 0.393613  
2002-04-22 07:36:17 51°19.46 2°47.678 -999 0.083626 0.393628  
2002-04-22 07:36:22 51°19.472 2°47.655 -999 0.083626 0.393628  
2002-04-22 07:36:27 51°19.481 2°47.629 -999 0.083626 0.393628  
2002-04-22 07:36:32 51°19.493 2°47.606 -999 0.083626 0.393628  
2002-04-22 07:36:37 51°19.503 2°47.581 -999 0.083626 0.393644  
2002-04-22 07:36:42 51°19.514 2°47.557 -999 0.083626 0.393638  
2002-04-22 07:36:47 51°19.524 2°47.532 -999 0.083626 0.393654  
2002-04-22 07:36:52 51°19.536 2°47.508 -999 0.083626 0.393654  
2002-04-22 07:36:57 51°19.545 2°47.483 -999 0.083626 0.393669  
2002-04-22 07:37:03 51°19.56 2°47.455 -999 0.083626 0.393659  
2002-04-22 07:37:07 51°19.567 2°47.434 -999 0.083626 0.393695  
2002-04-22 07:37:12 51°19.578 2°47.411 -999 0.083626 0.39368  
2002-04-22 07:37:18 51°19.59 2°47.381 -999 0.083626 0.393711  
2002-04-22 07:37:22 51°19.599 2°47.362 -999 0.083626 0.393711  
2002-04-22 07:37:27 51°19.609 2°47.338 -999 0.083626 0.3937  
2002-04-22 07:37:32 51°19.62 2°47.313 -999 0.083626 0.393716  
2002-04-22 07:37:38 51°19.632 2°47.284 -999 0.083626 0.393726  
2002-04-22 07:37:42 51°19.64 2°47.265 -999 0.083626 0.393716  
2002-04-22 07:37:47 51°19.65 2°47.24 -999 0.083626 0.393747  
2002-04-22 07:37:52 51°19.659 2°47.215 -999 0.083626 0.393747  
2002-04-22 07:37:57 51°19.67 2°47.19 -999 0.083626 0.393726  
2002-04-22 07:38:02 51°19.678 2°47.164 -999 0.083626 0.393762  
2002-04-22 07:38:07 51°19.687 2°47.139 -999 0.083626 0.393762  
2002-04-22 07:38:12 51°19.695 2°47.112 -999 0.083626 0.393767  
2002-04-22 07:38:17 51°19.704 2°47.087 -999 0.083626 0.393788  
2002-04-22 07:38:22 51°19.711 2°47.061 -999 0.083626 0.393788  
2002-04-22 07:38:27 51°19.72 2°47.035 -999 0.083626 0.393777  
2002-04-22 07:38:32 51°19.726 2°47.009 -999 0.083626 0.393803  
2002-04-22 07:38:38 51°19.735 2°46.977 -999 0.083626 0.393783  
2002-04-22 07:38:42 51°19.74 2°46.955 -999 0.083626 0.393803  
2002-04-22 07:38:47 51°19.747 2°46.929 -999 0.083626 0.393803  
2002-04-22 07:38:52 51°19.752 2°46.901 -999 0.083626 0.393803  
2002-04-22 07:38:57 51°19.759 2°46.874 -999 0.083626 0.393798  
2002-04-22 07:39:02 51°19.765 2°46.847 -999 0.083528 0.39335  
2002-04-22 07:39:07 51°19.772 2°46.82 -999 0.083626 0.393819  
2002-04-22 07:39:12 51°19.777 2°46.792 -999 0.083528 0.393355  
2002-04-22 07:39:17 51°19.784 2°46.765 -999 0.083528 0.393365  
2002-04-22 07:39:22 51°19.791 2°46.738 -999 0.083528 0.393365  
2002-04-22 07:39:27 51°19.797 2°46.711 -999 0.083528 0.393365  
2002-04-22 07:39:32 51°19.804 2°46.684 -999 0.083528 0.393375  
2002-04-22 07:39:37 51°19.811 2°46.657 -999 0.083528 0.393386  
2002-04-22 07:39:42 51°19.818 2°46.63 -999 0.083528 0.393391  
2002-04-22 07:39:47 51°19.824 2°46.603 -999 0.083528 0.393401  
2002-04-22 07:39:52 51°19.83 2°46.575 -999 0.083528 0.393401  
2002-04-22 07:39:57 51°19.836 2°46.548 -999 0.083528 0.393406  
2002-04-22 07:40:02 51°19.842 2°46.522 -999 0.083528 0.393417  
2002-04-22 07:40:08 51°19.851 2°46.49 -999 0.083528 0.393422  
2002-04-22 07:40:12 51°19.855 2°46.469 -999 0.083528 0.393437  
2002-04-22 07:40:17 51°19.862 2°46.442 -999 0.083528 0.393437  
2002-04-22 07:40:22 51°19.868 2°46.416 -999 0.083528 0.393437  
2002-04-22 07:40:28 51°19.876 2°46.384 -999 0.083528 0.393458  
2002-04-22 07:40:32 51°19.881 2°46.363 -999 0.083528 0.393468  
2002-04-22 07:40:38 51°19.89 2°46.331 -999 0.083528 0.393473  
2002-04-22 07:40:42 51°19.894 2°46.31 -999 0.083528 0.393489  
2002-04-22 07:40:47 51°19.901 2°46.284 -999 0.083528 0.393494  
2002-04-22 07:40:52 51°19.907 2°46.258 -999 0.083528 0.393494  
2002-04-22 07:40:57 51°19.913 2°46.231 -999 0.083528 0.393504  
2002-04-22 07:41:02 51°19.92 2°46.205 -999 0.083528 0.393509  
2002-04-22 07:41:07 51°19.926 2°46.179 -999 0.083528 0.393519  
2002-04-22 07:41:12 51°19.932 2°46.152 -999 0.083528 0.393525  
2002-04-22 07:41:17 51°19.939 2°46.127 -999 0.083528 0.39353  
2002-04-22 07:41:22 51°19.945 2°46.101 -999 0.083528 0.39353  
2002-04-22 07:41:27 51°19.951 2°46.074 -999 0.083528 0.393545  
2002-04-22 07:41:32 51°19.958 2°46.048 -999 0.083528 0.39355  
2002-04-22 07:41:38 51°19.965 2°46.017 -999 0.083528 0.393561  
2002-04-22 07:41:42 51°19.971 2°45.996 -999 0.083528 0.393571  
2002-04-22 07:41:47 51°19.977 2°45.97 -999 0.083528 0.393581  
2002-04-22 07:41:52 51°19.983 2°45.944 -999 0.083528 0.393581  
2002-04-22 07:41:57 51°19.99 2°45.918 -999 0.083528 0.393586  
2002-04-22 07:42:02 51°19.996 2°45.892 -999 0.083528 0.393597  
2002-04-22 07:42:07 51°20.003 2°45.866 -999 0.083528 0.393602  
2002-04-22 07:42:12 51°20.009 2°45.84 -999 0.083528 0.393617  
2002-04-22 07:42:17 51°20.016 2°45.814 -999 0.083528 0.393628  
2002-04-22 07:42:22 51°20.022 2°45.788 -999 0.083528 0.393628  
2002-04-22 07:42:27 51°20.028 2°45.762 -999 0.083429 0.393148  
2002-04-22 07:42:32 51°20.036 2°45.736 -999 0.083429 0.393158  
2002-04-22 07:42:37 51°20.042 2°45.709 -999 0.083429 0.393174  
2002-04-22 07:42:42 51°20.049 2°45.683 -999 0.083429 0.393174  
2002-04-22 07:42:48 51°20.056 2°45.652 -999 0.083429 0.393189  
2002-04-22 07:42:52 51°20.062 2°45.632 -999 0.083429 0.393189  
2002-04-22 07:42:57 51°20.068 2°45.605 -999 0.083429 0.393194  
2002-04-22 07:43:02 51°20.075 2°45.579 -999 0.083429 0.393205  
2002-04-22 07:43:07 51°20.082 2°45.552 -999 0.083429 0.39322  
2002-04-22 07:43:12 51°20.088 2°45.526 -999 0.083429 0.39322  
2002-04-22 07:43:17 51°20.095 2°45.5 -999 0.083429 0.39323  
2002-04-22 07:43:22 51°20.102 2°45.473 -999 0.083429 0.39323  
2002-04-22 07:43:28 51°20.11 2°45.441 -999 0.083429 0.39323  
2002-04-22 07:43:32 51°20.115 2°45.42 -999 0.083429 0.393246  
2002-04-22 07:43:37 51°20.122 2°45.393 -999 0.083429 0.393251  
2002-04-22 07:43:42 51°20.129 2°45.367 -999 0.083429 0.393266  
2002-04-22 07:43:48 51°20.137 2°45.335 -999 0.083429 0.393272  
2002-04-22 07:43:52 51°20.142 2°45.314 -999 0.083429 0.393272  
2002-04-22 07:43:58 51°20.15 2°45.282 -999 0.083429 0.393287  
2002-04-22 07:44:02 51°20.155 2°45.26 -999 0.083429 0.393287  
2002-04-22 07:44:07 51°20.161 2°45.233 -999 0.083429 0.393313  
2002-04-22 07:44:12 51°20.167 2°45.207 -999 0.083429 0.393313  
2002-04-22 07:44:17 51°20.172 2°45.179 -999 0.083429 0.393328  
2002-04-22 07:44:22 51°20.178 2°45.152 -999 0.083429 0.393328  
2002-04-22 07:44:28 51°20.183 2°45.12 -999 0.083429 0.393339  
2002-04-22 07:44:32 51°20.187 2°45.098 -999 0.083429 0.393339  
2002-04-22 07:44:37 51°20.191 2°45.07 -999 0.083429 0.393354  
2002-04-22 07:44:42 51°20.196 2°45.043 -999 0.083429 0.393354  
2002-04-22 07:44:48 51°20.202 2°45.01 -999 0.083429 0.393364  
2002-04-22 07:44:52 51°20.206 2°44.988 -999 0.083429 0.393364  
2002-04-22 07:44:58 51°20.211 2°44.955 -999 0.083429 0.393375  
2002-04-22 07:45:02 51°20.216 2°44.934 -999 0.083429 0.393375  
2002-04-22 07:45:07 51°20.22 2°44.906 -999 0.083429 0.39339  
2002-04-22 07:45:12 51°20.226 2°44.879 -999 0.083429 0.393395  
2002-04-22 07:45:17 51°20.23 2°44.852 -999 0.083429 0.3934  
2002-04-22 07:45:22 51°20.235 2°44.824 -999 0.083429 0.3934  
2002-04-22 07:45:27 51°20.24 2°44.797 -999 0.083429 0.393421  
2002-04-22 07:45:32 51°20.245 2°44.77 -999 0.083429 0.393426  
2002-04-22 07:45:37 51°20.25 2°44.742 -999 0.083429 0.393431  
2002-04-22 07:45:42 51°20.255 2°44.715 -999 0.083429 0.393437  
2002-04-22 07:45:48 51°20.261 2°44.682 -999 0.08333 0.392962  
2002-04-22 07:45:52 51°20.265 2°44.66 -999 0.08333 0.392962  
2002-04-22 07:45:57 51°20.27 2°44.633 -999 0.08333 0.392982  
2002-04-22 07:46:02 51°20.275 2°44.606 -999 0.08333 0.392987  
2002-04-22 07:46:07 51°20.28 2°44.579 -999 0.08333 0.392998  
2002-04-22 07:46:12 51°20.284 2°44.551 -999 0.08333 0.393003  
2002-04-22 07:46:17 51°20.289 2°44.524 -999 0.08333 0.393018  
2002-04-22 07:46:22 51°20.293 2°44.497 -999 0.08333 0.393018  
2002-04-22 07:46:27 51°20.298 2°44.47 -999 0.08333 0.393024  
2002-04-22 07:46:32 51°20.302 2°44.442 -999 0.08333 0.393039  
2002-04-22 07:46:37 51°20.307 2°44.415 -999 0.08333 0.393039  
2002-04-22 07:46:42 51°20.311 2°44.388 -999 0.08333 0.393054  
2002-04-22 07:46:48 51°20.317 2°44.355 -999 0.08333 0.39306  
2002-04-22 07:46:52 51°20.32 2°44.333 -999 0.08333 0.39306  
2002-04-22 07:46:58 51°20.326 2°44.301 -999 0.08333 0.39307  
2002-04-22 07:47:02 51°20.33 2°44.279 -999 0.08333 0.39308  
2002-04-22 07:47:07 51°20.334 2°44.252 -999 0.08333 0.393091  
2002-04-22 07:47:12 51°20.339 2°44.224 -999 0.08333 0.393096  
2002-04-22 07:47:17 51°20.344 2°44.197 -999 0.08333 0.393106  
2002-04-22 07:47:22 51°20.349 2°44.17 -999 0.08333 0.393106  
2002-04-22 07:47:27 51°20.353 2°44.142 -999 0.08333 0.393121  
2002-04-22 07:47:32 51°20.358 2°44.115 -999 0.08333 0.393127  
2002-04-22 07:47:37 51°20.362 2°44.088 -999 0.08333 0.393137  
2002-04-22 07:47:42 51°20.367 2°44.061 -999 0.08333 0.393142  
2002-04-22 07:47:47 51°20.372 2°44.033 -999 0.08333 0.393158  
2002-04-22 07:47:52 51°20.376 2°44.006 -999 0.08333 0.393158  
2002-04-22 07:47:57 51°20.381 2°43.978 -999 0.08333 0.393163  
2002-04-22 07:48:02 51°20.386 2°43.951 -999 0.08333 0.393168  
2002-04-22 07:48:08 51°20.391 2°43.918 -999 0.08333 0.393178  
2002-04-22 07:48:12 51°20.395 2°43.896 -999 0.08333 0.393194  
2002-04-22 07:48:17 51°20.399 2°43.868 -999 0.08333 0.393199  
2002-04-22 07:48:22 51°20.403 2°43.841 -999 0.08333 0.393199  
2002-04-22 07:48:28 51°20.409 2°43.808 -999 0.08333 0.393204  
2002-04-22 07:48:32 51°20.412 2°43.786 -999 0.08333 0.393209  
2002-04-22 07:48:37 51°20.417 2°43.758 -999 0.08333 0.393225  
2002-04-22 07:48:42 51°20.421 2°43.731 -999 0.08333 0.393235  
2002-04-22 07:48:47 51°20.426 2°43.703 -999 0.08333 0.39324  
2002-04-22 07:48:52 51°20.43 2°43.676 -999 0.08333 0.39324  
2002-04-22 07:48:57 51°20.434 2°43.648 -999 0.08333 0.393256  
2002-04-22 07:49:02 51°20.439 2°43.621 -999 0.08333 0.393256  
2002-04-22 07:49:08 51°20.443 2°43.587 -999 0.08333 0.393276  
2002-04-22 07:49:12 51°20.446 2°43.565 -999 0.083232 0.392806  
2002-04-22 07:49:17 51°20.448 2°43.538 -999 0.083232 0.392811  
2002-04-22 07:49:22 51°20.451 2°43.51 -999 0.083232 0.392811  
2002-04-22 07:49:27 51°20.453 2°43.482 -999 0.083232 0.392827  
2002-04-22 07:49:32 51°20.456 2°43.455 -999 0.08333 0.393307  
2002-04-22 07:49:37 51°20.457 2°43.427 -999 0.083232 0.392837  
2002-04-22 07:49:43 51°20.46 2°43.394 -999 0.083232 0.392842  
2002-04-22 07:50:02 51°20.469 2°43.292 -999 0.098432 0.44418  
2002-04-22 07:50:07 51°20.472 2°43.269 -999 0.083232 0.392878  
2002-04-22 07:50:11 51°20.474 2°43.251 29.634896 0.083232 0.392883  
2002-04-22 07:50:15 51°20.475 2°43.235 37.891694 0.083232 0.392899  
2002-04-22 07:50:19 51°20.477 2°43.219 18.496627 0.083232 0.392909  
2002-04-22 07:50:23 51°20.479 2°43.204 18.496627 0.083232 0.392909  
2002-04-22 07:50:28 51°20.481 2°43.187 10.527236 0.083232 0.392925  
2002-04-22 07:50:52 51°20.492 2°43.119 0.253548 0.083232 0.39295  
2002-04-22 07:50:57 51°20.495 2°43.107 3.647828 0.083232 0.392956  
2002-04-22 07:51:02 51°20.498 2°43.096 -999 0.083232 0.392971  
2002-04-22 07:51:07 51°20.5 2°43.086 3.305957 0.083232 0.392981  
2002-04-22 07:51:12 51°20.503 2°43.077 0.17825 0.083232 0.392992  
2002-04-22 07:51:17 51°20.506 2°43.068 4.997013 0.083232 0.393002  
2002-04-22 07:51:22 51°20.509 2°43.06 4.997013 0.083232 0.393002  
2002-04-22 07:51:27 51°20.512 2°43.052 1.810872 0.083232 0.393018  
2002-04-22 07:51:32 51°20.516 2°43.045 8.468859 0.083232 0.393018  
2002-04-22 07:51:37 51°20.519 2°43.038 6.983945 0.083232 0.393028  
2002-04-22 07:51:42 51°20.523 2°43.032 1.391316 0.083232 0.393038  
2002-04-22 07:51:47 51°20.526 2°43.025 -999 0.083232 0.393043  
2002-04-22 07:51:52 51°20.53 2°43.018 -999 0.083232 0.393043  
2002-04-22 07:51:57 51°20.535 2°43.011 -999 0.083232 0.393049  
2002-04-22 07:52:02 51°20.54 2°43.002 -999 0.083232 0.393064  
2002-04-22 07:52:08 51°20.547 2°42.99 -999 0.083232 0.393074  
2002-04-22 07:52:12 51°20.552 2°42.982 -999 0.083232 0.39308  
2002-04-22 07:52:17 51°20.558 2°42.971 5.719134 0.083232 0.39309  
2002-04-22 07:52:22 51°20.565 2°42.959 5.719134 0.083232 0.39309  
2002-04-22 07:52:27 51°20.571 2°42.947 19.764212 0.083133 0.392619  
2002-04-22 07:52:32 51°20.579 2°42.934 17.926023 0.083133 0.39263  
2002-04-22 07:52:37 51°20.586 2°42.921 31.304716 0.083133 0.39264  
2002-04-22 07:52:42 51°20.593 2°42.908 32.860261 0.083133 0.39265  
2002-04-22 07:52:48 51°20.602 2°42.892 31.695734 0.083133 0.392656  
2002-04-22 07:52:52 51°20.608 2°42.881 31.695734 0.083133 0.392656  
2002-04-22 07:52:58 51°20.617 2°42.863 32.016997 0.083133 0.392661  
2002-04-22 07:53:02 51°20.623 2°42.85 13.29524 0.083133 0.392671  
2002-04-22 07:53:07 51°20.631 2°42.833 13.563979 0.083133 0.392687  
2002-04-22 07:53:12 51°20.64 2°42.814 26.354782 0.083133 0.392692  
2002-04-22 07:53:17 51°20.649 2°42.794 22.909252 0.083133 0.392687  
2002-04-22 07:53:22 51°20.659 2°42.775 22.909252 0.083133 0.392687  
2002-04-22 07:53:28 51°20.67 2°42.75 25.386609 0.083133 0.392697  
2002-04-22 07:53:32 51°20.678 2°42.733 26.940622 0.083133 0.392712  
2002-04-22 07:53:37 51°20.685 2°42.71 -999 0.083133 0.392728  
2002-04-22 07:53:42 51°20.692 2°42.687 -999 0.083133 0.392748  
2002-04-22 07:53:48 51°20.699 2°42.657 -999 0.083133 0.392754  
2002-04-22 07:53:52 51°20.704 2°42.638 -999 0.083133 0.392754  
2002-04-22 07:53:57 51°20.71 2°42.614 -999 0.083133 0.392759  
2002-04-22 07:54:02 51°20.716 2°42.589 -999 0.083133 0.392754  
2002-04-22 07:54:07 51°20.723 2°42.565 -999 0.083133 0.392759  
2002-04-22 07:54:12 51°20.728 2°42.54 -999 0.083133 0.392769  
2002-04-22 07:54:17 51°20.734 2°42.515 -999 0.083133 0.39279  
2002-04-22 07:54:22 51°20.739 2°42.49 -999 0.083133 0.39279  
2002-04-22 07:54:28 51°20.746 2°42.46 -999 0.083133 0.392795  
2002-04-22 07:54:32 51°20.751 2°42.441 -999 0.083133 0.392805  
2002-04-22 07:54:37 51°20.757 2°42.416 -999 0.083133 0.392816  
2002-04-22 07:54:42 51°20.763 2°42.391 -999 0.083133 0.392836  
2002-04-22 07:54:48 51°20.769 2°42.361 -999 0.083133 0.392841  
2002-04-22 07:54:52 51°20.772 2°42.341 -999 0.083133 0.392841  
2002-04-22 07:54:58 51°20.776 2°42.311 -999 0.083133 0.392857  
2002-04-22 07:55:02 51°20.778 2°42.29 -999 0.083133 0.392867  
2002-04-22 07:55:08 51°20.78 2°42.258 -999 0.083133 0.392883  
2002-04-22 07:55:12 51°20.781 2°42.237 -999 0.083133 0.392883  
2002-04-22 07:55:17 51°20.781 2°42.21 -999 0.083133 0.392888  
2002-04-22 07:55:22 51°20.781 2°42.184 -999 0.083133 0.392888  
2002-04-22 07:55:27 51°20.78 2°42.157 -999 0.083133 0.392898  
2002-04-22 07:55:32 51°20.78 2°42.13 -999 0.083133 0.392903  
2002-04-22 07:55:37 51°20.779 2°42.103 -999 0.083133 0.392914  
2002-04-22 07:55:42 51°20.779 2°42.076 -999 0.083133 0.392924  
2002-04-22 07:55:48 51°20.779 2°42.043 -999 0.083133 0.392934  
2002-04-22 07:55:52 51°20.779 2°42.022 -999 0.083133 0.392934  
2002-04-22 07:55:57 51°20.78 2°41.995 -999 0.083133 0.392945  
2002-04-22 07:56:02 51°20.78 2°41.967 -999 0.083133 0.39296  
2002-04-22 07:56:07 51°20.781 2°41.94 -999 0.083133 0.39296  
2002-04-22 07:56:12 51°20.782 2°41.912 -999 0.083133 0.392965  
2002-04-22 07:56:17 51°20.783 2°41.885 -999 0.083034 0.3925  
2002-04-22 07:56:22 51°20.784 2°41.857 -999 0.083034 0.3925  
2002-04-22 07:56:27 51°20.786 2°41.83 -999 0.083133 0.392991  
2002-04-22 07:56:32 51°20.787 2°41.802 -999 0.083133 0.392996  
2002-04-22 07:56:37 51°20.788 2°41.775 -999 0.083133 0.393012  
2002-04-22 07:56:42 51°20.79 2°41.747 -999 0.083034 0.392541  
2002-04-22 07:56:47 51°20.791 2°41.72 -999 0.083034 0.392556  
2002-04-22 07:56:52 51°20.792 2°41.692 -999 0.083034 0.392556  
2002-04-22 07:56:58 51°20.794 2°41.659 -999 0.083034 0.392567  
2002-04-22 07:57:02 51°20.794 2°41.637 -999 0.083034 0.392572  
2002-04-22 07:57:07 51°20.796 2°41.609 -999 0.083034 0.392582  
2002-04-22 07:57:12 51°20.797 2°41.581 -999 0.083034 0.392587  
2002-04-22 07:57:17 51°20.799 2°41.554 -999 0.083034 0.392603  
2002-04-22 07:57:22 51°20.8 2°41.526 -999 0.083034 0.392603  
2002-04-22 07:57:28 51°20.802 2°41.493 -999 0.083034 0.392603  
2002-04-22 07:57:32 51°20.803 2°41.471 -999 0.083034 0.392618  
2002-04-22 07:57:37 51°20.804 2°41.443 -999 0.083034 0.392629  
2002-04-22 07:57:42 51°20.806 2°41.416 -999 0.083034 0.392634  
2002-04-22 07:57:47 51°20.807 2°41.388 -999 0.083034 0.392644  
2002-04-22 07:57:52 51°20.809 2°41.36 -999 0.083034 0.392644  
2002-04-22 07:57:57 51°20.81 2°41.332 -999 0.083034 0.392644  
2002-04-22 07:58:02 51°20.812 2°41.304 -999 0.083034 0.392655  
2002-04-22 07:58:07 51°20.813 2°41.276 -999 0.083034 0.39267  
2002-04-22 07:58:12 51°20.815 2°41.248 -999 0.083034 0.392675  
2002-04-22 07:58:17 51°20.816 2°41.22 -999 0.083034 0.392691  
2002-04-22 07:58:22 51°20.818 2°41.192 -999 0.083034 0.392691  
2002-04-22 07:58:27 51°20.819 2°41.163 -999 0.083034 0.392691  
2002-04-22 07:58:32 51°20.821 2°41.135 -999 0.083034 0.392701  
2002-04-22 07:58:37 51°20.822 2°41.107 -999 0.083034 0.392717  
2002-04-22 07:58:42 51°20.824 2°41.079 -999 0.083034 0.392722  
2002-04-22 07:58:48 51°20.826 2°41.045 -999 0.083034 0.392732  
2002-04-22 07:58:52 51°20.827 2°41.022 -999 0.083034 0.392732  
2002-04-22 07:58:58 51°20.829 2°40.988 -999 0.083034 0.392742  
2002-04-22 07:59:02 51°20.83 2°40.966 -999 0.083034 0.392748  
2002-04-22 07:59:07 51°20.832 2°40.938 -999 0.083034 0.392748  
2002-04-22 07:59:12 51°20.833 2°40.909 -999 0.083034 0.392763  
2002-04-22 07:59:18 51°20.835 2°40.875 -999 0.083034 0.392774  
2002-04-22 07:59:22 51°20.836 2°40.853 -999 0.083034 0.392774  
2002-04-22 07:59:27 51°20.838 2°40.824 -999 0.083034 0.392779  
2002-04-22 07:59:32 51°20.84 2°40.796 -999 0.083034 0.392794  
2002-04-22 07:59:37 51°20.841 2°40.768 -999 0.083034 0.392799  
2002-04-22 07:59:42 51°20.842 2°40.74 -999 0.083034 0.39281  
2002-04-22 07:59:47 51°20.844 2°40.712 -999 0.083034 0.392815  
2002-04-22 07:59:53 51°20.846 2°40.678 -999 0.083034 0.392815  
2002-04-22 07:59:57 51°20.847 2°40.655 -999 0.083034 0.39283  
2002-04-22 08:00:02 51°20.848 2°40.627 -999 0.083034 0.39283  
2002-04-22 08:00:08 51°20.85 2°40.593 -999 0.083034 0.392846  
2002-04-22 08:00:12 51°20.851 2°40.57 -999 0.083034 0.392851  
2002-04-22 08:00:18 51°20.853 2°40.536 -999 0.083034 0.392861  
2002-04-22 08:00:22 51°20.854 2°40.514 -999 0.083034 0.392861  
2002-04-22 08:00:28 51°20.856 2°40.48 -999 0.083034 0.392867  
2002-04-22 08:00:32 51°20.858 2°40.458 -999 0.083034 0.392877  
2002-04-22 08:00:37 51°20.859 2°40.43 -999 0.082936 0.392406  
2002-04-22 08:00:42 51°20.86 2°40.402 -999 0.082936 0.392416  
2002-04-22 08:00:48 51°20.862 2°40.368 -999 0.083034 0.392903  
2002-04-22 08:00:52 51°20.863 2°40.346 -999 0.083034 0.392903  
2002-04-22 08:00:58 51°20.865 2°40.312 -999 0.082936 0.392437  
2002-04-22 08:01:02 51°20.867 2°40.29 -999 0.082936 0.392442  
2002-04-22 08:01:07 51°20.868 2°40.262 -999 0.082936 0.392452  
2002-04-22 08:01:12 51°20.87 2°40.234 -999 0.082936 0.392463  
2002-04-22 08:01:17 51°20.871 2°40.206 -999 0.082936 0.392473  
2002-04-22 08:01:22 51°20.873 2°40.178 -999 0.082936 0.392473  
2002-04-22 08:01:27 51°20.874 2°40.15 -999 0.082936 0.392478  
2002-04-22 08:01:32 51°20.876 2°40.122 -999 0.082936 0.392488  
2002-04-22 08:01:38 51°20.878 2°40.088 -999 0.082936 0.392499  
2002-04-22 08:01:42 51°20.879 2°40.066 -999 0.082936 0.392504  
2002-04-22 08:01:47 51°20.88 2°40.038 -999 0.082936 0.392514  
2002-04-22 08:01:52 51°20.882 2°40.01 -999 0.082936 0.392514  
2002-04-22 08:01:58 51°20.884 2°39.977 -999 0.082936 0.392519  
2002-04-22 08:02:02 51°20.885 2°39.954 -999 0.082936 0.39253  
2002-04-22 08:02:08 51°20.887 2°39.921 -999 0.082936 0.39254  
2002-04-22 08:02:12 51°20.888 2°39.898 -999 0.082936 0.392545  
2002-04-22 08:02:17 51°20.89 2°39.87 -999 0.082936 0.392556  
2002-04-22 08:02:22 51°20.891 2°39.842 -999 0.082936 0.392556  
2002-04-22 08:02:27 51°20.893 2°39.814 -999 0.082936 0.392566  
2002-04-22 08:02:32 51°20.894 2°39.786 -999 0.082936 0.392576  
2002-04-22 08:02:37 51°20.896 2°39.758 -999 0.082936 0.392592  
2002-04-22 08:02:43 51°20.898 2°39.724 -999 0.082936 0.392592  
2002-04-22 08:02:48 51°20.899 2°39.696 -999 0.082936 0.392597  
2002-04-22 08:02:52 51°20.901 2°39.674 -999 0.082936 0.392597  
2002-04-22 08:02:57 51°20.902 2°39.645 -999 0.082936 0.392607  
2002-04-22 08:03:02 51°20.904 2°39.618 -999 0.082936 0.392623  
2002-04-22 08:03:08 51°20.906 2°39.584 -999 0.082936 0.392628  
2002-04-22 08:03:12 51°20.907 2°39.562 -999 0.082936 0.392638  
2002-04-22 08:03:17 51°20.909 2°39.534 -999 0.082936 0.392649  
2002-04-22 08:03:22 51°20.91 2°39.506 -999 0.082936 0.392649  
2002-04-22 08:03:27 51°20.912 2°39.479 -999 0.082936 0.392654  
2002-04-22 08:03:32 51°20.913 2°39.451 -999 0.082936 0.392664  
2002-04-22 08:03:37 51°20.915 2°39.423 -999 0.082936 0.392675  
2002-04-22 08:03:42 51°20.916 2°39.395 -999 0.082936 0.392685  
2002-04-22 08:03:47 51°20.918 2°39.367 -999 0.082936 0.392695  
2002-04-22 08:03:52 51°20.92 2°39.339 -999 0.082936 0.392695  
2002-04-22 08:03:57 51°20.921 2°39.311 -999 0.082936 0.392701  
2002-04-22 08:04:02 51°20.923 2°39.284 -999 0.082936 0.392711  
2002-04-22 08:04:07 51°20.925 2°39.256 -999 0.082936 0.392721  
2002-04-22 08:04:12 51°20.926 2°39.228 -999 0.082936 0.392732  
2002-04-22 08:04:17 51°20.928 2°39.2 -999 0.082936 0.392737  
2002-04-22 08:04:22 51°20.93 2°39.173 -999 0.082936 0.392737  
2002-04-22 08:04:28 51°20.931 2°39.14 -999 0.082936 0.392752  
2002-04-22 08:04:32 51°20.933 2°39.118 -999 0.082936 0.392757  
2002-04-22 08:04:37 51°20.935 2°39.09 -999 0.082936 0.392763  
2002-04-22 08:04:43 51°20.937 2°39.057 -999 0.082936 0.392768  
2002-04-22 08:04:47 51°20.938 2°39.035 -999 0.082936 0.392783  
2002-04-22 08:04:52 51°20.94 2°39.007 -999 0.082936 0.392783  
2002-04-22 08:04:57 51°20.941 2°38.979 -999 0.082837 0.392301  
2002-04-22 08:05:02 51°20.943 2°38.952 -999 0.082837 0.392317  
2002-04-22 08:05:08 51°20.945 2°38.919 -999 0.082837 0.392327  
2002-04-22 08:05:12 51°20.947 2°38.896 -999 0.082837 0.392327  
2002-04-22 08:05:18 51°20.948 2°38.863 -999 0.082837 0.392343  
2002-04-22 08:05:22 51°20.95 2°38.841 -999 0.082837 0.392343  
2002-04-22 08:05:27 51°20.952 2°38.813 -999 0.082837 0.392358  
2002-04-22 08:05:32 51°20.953 2°38.785 -999 0.082837 0.392358  
2002-04-22 08:05:38 51°20.955 2°38.751 -999 0.082837 0.392369  
2002-04-22 08:05:41 51°20.957 2°38.734 -999 0.082837 0.392384  
2002-04-22 08:05:47 51°20.958 2°38.701 -999 0.082837 0.392384  
2002-04-22 08:05:52 51°20.96 2°38.673 -999 0.082837 0.392384  
2002-04-22 08:05:57 51°20.962 2°38.645 -999 0.082837 0.392394  
2002-04-22 08:06:03 51°20.964 2°38.611 -999 0.082837 0.39241  
2002-04-22 08:06:08 51°20.966 2°38.583 -999 0.082837 0.392415  
2002-04-22 08:06:12 51°20.967 2°38.561 -999 0.082837 0.392426  
2002-04-22 08:06:18 51°20.969 2°38.527 -999 0.082837 0.392426  
2002-04-22 08:06:22 51°20.97 2°38.505 -999 0.082837 0.392426  
2002-04-22 08:06:27 51°20.972 2°38.477 -999 0.082837 0.392441  
2002-04-22 08:06:32 51°20.973 2°38.449 -999 0.082837 0.392451  
2002-04-22 08:06:38 51°20.976 2°38.415 -999 0.082837 0.392457  
2002-04-22 08:06:42 51°20.977 2°38.393 -999 0.082837 0.392467  
2002-04-22 08:06:48 51°20.979 2°38.359 -999 0.082837 0.392477  
2002-04-22 08:06:52 51°20.98 2°38.337 -999 0.082837 0.392477  
2002-04-22 08:06:57 51°20.982 2°38.309 -999 0.082837 0.392482  
2002-04-22 08:07:02 51°20.984 2°38.281 -999 0.082837 0.392488  
2002-04-22 08:07:08 51°20.985 2°38.247 -999 0.082837 0.392503  
2002-04-22 08:07:12 51°20.987 2°38.225 -999 0.082837 0.392508  
2002-04-22 08:07:17 51°20.989 2°38.197 -999 0.082837 0.392519  
2002-04-22 08:07:22 51°20.991 2°38.169 -999 0.082837 0.392519  
2002-04-22 08:07:27 51°20.992 2°38.141 -999 0.082837 0.392524  
2002-04-22 08:07:32 51°20.994 2°38.113 -999 0.082837 0.392539  
2002-04-22 08:07:37 51°20.996 2°38.085 -999 0.082837 0.39255  
2002-04-22 08:07:42 51°20.998 2°38.057 -999 0.082837 0.39256  
2002-04-22 08:07:47 51°20.999 2°38.029 -999 0.082837 0.39256  
2002-04-22 08:07:52 51°21.001 2°38.001 -999 0.082837 0.39256  
2002-04-22 08:07:57 51°21.003 2°37.973 -999 0.082837 0.392576  
2002-04-22 08:08:02 51°21.004 2°37.945 -999 0.082837 0.392581  
2002-04-22 08:08:07 51°21.006 2°37.917 -999 0.082837 0.392586  
2002-04-22 08:08:12 51°21.008 2°37.89 -999 0.082837 0.392602  
2002-04-22 08:08:17 51°21.01 2°37.862 -999 0.082837 0.392612  
2002-04-22 08:08:22 51°21.012 2°37.834 -999 0.082837 0.392612  
2002-04-22 08:08:28 51°21.014 2°37.801 -999 0.082837 0.392617  
2002-04-22 08:08:32 51°21.016 2°37.778 -999 0.082837 0.392628  
2002-04-22 08:08:38 51°21.018 2°37.745 -999 0.082837 0.392638  
2002-04-22 08:08:43 51°21.02 2°37.717 -999 0.082837 0.392638  
2002-04-22 08:08:47 51°21.021 2°37.694 -999 0.082738 0.392171  
2002-04-22 08:08:52 51°21.023 2°37.666 -999 0.082738 0.392171  
2002-04-22 08:08:57 51°21.025 2°37.638 -999 0.082738 0.392181  
2002-04-22 08:09:02 51°21.027 2°37.61 -999 0.082738 0.392192  
2002-04-22 08:09:08 51°21.03 2°37.576 -999 0.082738 0.392202  
2002-04-22 08:09:12 51°21.031 2°37.553 -999 0.082738 0.392207  
2002-04-22 08:09:17 51°21.033 2°37.525 -999 0.082738 0.392223  
2002-04-22 08:09:22 51°21.035 2°37.497 -999 0.082738 0.392223  
2002-04-22 08:09:27 51°21.037 2°37.469 -999 0.082738 0.392228  
2002-04-22 08:09:32 51°21.039 2°37.44 -999 0.082738 0.392238  
2002-04-22 08:09:38 51°21.042 2°37.407 -999 0.082738 0.392249  
2002-04-22 08:09:42 51°21.043 2°37.384 -999 0.082738 0.392254  
2002-04-22 08:09:47 51°21.045 2°37.356 -999 0.082738 0.392259  
2002-04-22 08:09:52 51°21.047 2°37.328 -999 0.082738 0.392259  
2002-04-22 08:09:57 51°21.049 2°37.299 -999 0.082738 0.392275  
2002-04-22 08:10:02 51°21.051 2°37.271 -999 0.082738 0.392285  
2002-04-22 08:10:07 51°21.053 2°37.243 -999 0.082738 0.39229  
2002-04-22 08:10:12 51°21.055 2°37.214 -999 0.082738 0.392306  
2002-04-22 08:10:17 51°21.057 2°37.186 -999 0.082738 0.392311  
2002-04-22 08:10:22 51°21.058 2°37.158 -999 0.082738 0.392311  
2002-04-22 08:10:27 51°21.06 2°37.13 -999 0.082738 0.392326  
2002-04-22 08:10:32 51°21.062 2°37.101 -999 0.082738 0.392326  
2002-04-22 08:10:38 51°21.065 2°37.067 -999 0.082738 0.392342  
2002-04-22 08:10:42 51°21.067 2°37.044 -999 0.082738 0.392347  
2002-04-22 08:10:47 51°21.069 2°37.016 -999 0.082738 0.392357  
2002-04-22 08:10:53 51°21.071 2°36.981 -999 0.082738 0.392357  
2002-04-22 08:10:57 51°21.073 2°36.959 -999 0.082738 0.392378  
2002-04-22 08:11:02 51°21.075 2°36.931 -999 0.082738 0.392378  
2002-04-22 08:11:07 51°21.077 2°36.902 -999 0.082738 0.392389  
2002-04-22 08:11:12 51°21.079 2°36.873 -999 0.082738 0.392399  
2002-04-22 08:11:18 51°21.081 2°36.84 -999 0.082738 0.392404  
2002-04-22 08:11:22 51°21.083 2°36.817 -999 0.082738 0.392404  
2002-04-22 08:11:28 51°21.085 2°36.783 -999 0.082738 0.39242  
2002-04-22 08:11:32 51°21.085 2°36.761 -999 0.082738 0.392435  
2002-04-22 08:11:37 51°21.086 2°36.734 -999 0.082738 0.39244  
2002-04-22 08:11:42 51°21.087 2°36.706 -999 0.082738 0.392451  
2002-04-22 08:11:48 51°21.089 2°36.673 -999 0.082738 0.392451  
2002-04-22 08:11:52 51°21.09 2°36.651 -999 0.082738 0.392451  
2002-04-22 08:11:57 51°21.092 2°36.624 -999 0.082738 0.392466  
2002-04-22 08:12:02 51°21.093 2°36.596 -999 0.082738 0.392472  
2002-04-22 08:12:08 51°21.096 2°36.563 -999 0.082738 0.392482  
2002-04-22 08:12:12 51°21.097 2°36.542 -999 0.08264 0.39202  
2002-04-22 08:12:18 51°21.099 2°36.509 -999 0.082738 0.392503  
2002-04-22 08:12:22 51°21.099 2°36.488 -999 0.082738 0.392503  
2002-04-22 08:12:28 51°21.102 2°36.455 -999 0.08264 0.392035  
2002-04-22 08:12:32 51°21.102 2°36.433 -999 0.082738 0.392529  
2002-04-22 08:12:38 51°21.105 2°36.4 -999 0.08264 0.392046  
2002-04-22 08:12:42 51°21.106 2°36.379 -999 0.08264 0.392061  
2002-04-22 08:12:47 51°21.107 2°36.351 -999 0.08264 0.392066  
2002-04-22 08:12:52 51°21.109 2°36.324 -999 0.08264 0.392066  
2002-04-22 08:12:57 51°21.111 2°36.296 -999 0.08264 0.392077  
2002-04-22 08:13:02 51°21.112 2°36.269 -999 0.08264 0.392087  
2002-04-22 08:13:07 51°21.114 2°36.241 -999 0.08264 0.392098  
2002-04-22 08:13:13 51°21.116 2°36.209 -999 0.08264 0.392108  
2002-04-22 08:13:17 51°21.117 2°36.187 -999 0.08264 0.392118  
2002-04-22 08:13:22 51°21.119 2°36.16 -999 0.08264 0.392118  
2002-04-22 08:13:27 51°21.121 2°36.133 -999 0.08264 0.392129  
2002-04-22 08:13:32 51°21.122 2°36.105 -999 0.08264 0.392149  
2002-04-22 08:13:37 51°21.124 2°36.078 -999 0.08264 0.392149  
2002-04-22 08:13:42 51°21.125 2°36.051 -999 0.08264 0.39216  
2002-04-22 08:13:48 51°21.127 2°36.018 -999 0.08264 0.392165  
2002-04-22 08:13:52 51°21.128 2°35.996 -999 0.08264 0.392165  
2002-04-22 08:13:57 51°21.13 2°35.969 -999 0.08264 0.392181  
2002-04-22 08:14:02 51°21.131 2°35.942 -999 0.08264 0.392186  
2002-04-22 08:14:07 51°21.133 2°35.915 -999 0.08264 0.392191  
2002-04-22 08:14:12 51°21.135 2°35.887 -999 0.08264 0.392201  
2002-04-22 08:14:18 51°21.137 2°35.854 -999 0.08264 0.392212  
2002-04-22 08:14:22 51°21.138 2°35.833 -999 0.08264 0.392212  
2002-04-22 08:14:27 51°21.14 2°35.805 -999 0.08264 0.392222  
2002-04-22 08:14:32 51°21.142 2°35.778 -999 0.08264 0.392232  
2002-04-22 08:14:37 51°21.144 2°35.751 -999 0.08264 0.392248  
2002-04-22 08:14:42 51°21.146 2°35.724 -999 0.08264 0.392258  
2002-04-22 08:14:47 51°21.147 2°35.696 -999 0.08264 0.392269  
2002-04-22 08:14:52 51°21.149 2°35.669 -999 0.08264 0.392269  
2002-04-22 08:14:57 51°21.151 2°35.642 -999 0.08264 0.392274  
2002-04-22 08:15:02 51°21.153 2°35.615 -999 0.08264 0.392284  
2002-04-22 08:15:07 51°21.154 2°35.588 -999 0.08264 0.392295  
2002-04-22 08:15:12 51°21.156 2°35.561 -999 0.08264 0.392305  
2002-04-22 08:15:17 51°21.158 2°35.533 -999 0.08264 0.39231  
2002-04-22 08:15:22 51°21.16 2°35.506 -999 0.08264 0.39231  
2002-04-22 08:15:28 51°21.162 2°35.474 -999 0.08264 0.392321  
2002-04-22 08:15:32 51°21.164 2°35.452 -999 0.08264 0.392336  
2002-04-22 08:15:37 51°21.166 2°35.425 -999 0.08264 0.392341  
2002-04-22 08:15:42 51°21.168 2°35.397 -999 0.08264 0.392357  
2002-04-22 08:15:47 51°21.17 2°35.37 -999 0.08264 0.392367  
2002-04-22 08:15:52 51°21.172 2°35.343 -999 0.08264 0.392367  
2002-04-22 08:15:58 51°21.174 2°35.31 -999 0.08264 0.392378  
2002-04-22 08:16:02 51°21.176 2°35.288 -999 0.08264 0.392388  
2002-04-22 08:16:08 51°21.178 2°35.255 -999 0.082541 0.39191  
2002-04-22 08:16:12 51°21.18 2°35.233 -999 0.08264 0.392404  
2002-04-22 08:16:17 51°21.182 2°35.206 -999 0.082541 0.391931  
2002-04-22 08:16:22 51°21.184 2°35.178 -999 0.082541 0.391931  
2002-04-22 08:16:27 51°21.185 2°35.151 -999 0.082541 0.391941  
2002-04-22 08:16:32 51°21.188 2°35.123 -999 0.082541 0.391946  
2002-04-22 08:16:37 51°21.189 2°35.096 -999 0.082541 0.391957  
2002-04-22 08:16:42 51°21.192 2°35.068 -999 0.082541 0.391972  
2002-04-22 08:16:48 51°21.194 2°35.034 -999 0.082541 0.391977  
2002-04-22 08:16:52 51°21.196 2°35.012 -999 0.082541 0.391977  
2002-04-22 08:16:57 51°21.198 2°34.984 -999 0.082541 0.391993  
2002-04-22 08:17:02 51°21.2 2°34.956 -999 0.082541 0.391998  
2002-04-22 08:17:08 51°21.202 2°34.922 -999 0.082541 0.392009  
2002-04-22 08:17:12 51°21.204 2°34.9 -999 0.082541 0.392014  
2002-04-22 08:17:17 51°21.206 2°34.872 -999 0.082541 0.392029  
2002-04-22 08:17:22 51°21.208 2°34.844 -999 0.082541 0.392029  
2002-04-22 08:17:27 51°21.21 2°34.816 -999 0.082541 0.39204  
2002-04-22 08:17:32 51°21.212 2°34.788 -999 0.082541 0.392045  
2002-04-22 08:17:37 51°21.214 2°34.76 -999 0.082541 0.392061  
2002-04-22 08:17:42 51°21.216 2°34.732 -999 0.082541 0.392071  
2002-04-22 08:17:47 51°21.218 2°34.704 -999 0.082541 0.392081  
2002-04-22 08:17:52 51°21.221 2°34.676 -999 0.082541 0.392081  
2002-04-22 08:17:57 51°21.222 2°34.649 -999 0.082541 0.392087  
2002-04-22 08:18:02 51°21.225 2°34.621 -999 0.082541 0.392092  
2002-04-22 08:18:08 51°21.227 2°34.587 -999 0.082541 0.392107  
2002-04-22 08:18:12 51°21.229 2°34.565 -999 0.082541 0.392118  
2002-04-22 08:18:17 51°21.231 2°34.537 -999 0.082541 0.392123  
2002-04-22 08:18:22 51°21.233 2°34.509 -999 0.082541 0.392123  
2002-04-22 08:18:28 51°21.236 2°34.476 -999 0.082541 0.392138  
2002-04-22 08:18:32 51°21.237 2°34.454 -999 0.082541 0.392149  
2002-04-22 08:18:37 51°21.24 2°34.426 -999 0.082541 0.392159  
2002-04-22 08:18:42 51°21.242 2°34.398 -999 0.082541 0.39217  
2002-04-22 08:18:47 51°21.244 2°34.37 -999 0.082541 0.392175  
2002-04-22 08:18:53 51°21.246 2°34.337 -999 0.082541 0.392175  
2002-04-22 08:18:58 51°21.249 2°34.309 -999 0.082541 0.392185  
2002-04-22 08:19:02 51°21.25 2°34.287 -999 0.082541 0.392201  
2002-04-22 08:19:07 51°21.253 2°34.259 -999 0.082541 0.392206  
2002-04-22 08:19:12 51°21.255 2°34.231 -999 0.082541 0.392216  
2002-04-22 08:19:17 51°21.257 2°34.203 -999 0.082442 0.391743  
2002-04-22 08:19:22 51°21.259 2°34.175 -999 0.082442 0.391743  
2002-04-22 08:19:28 51°21.262 2°34.141 -999 0.082442 0.391748  
2002-04-22 08:19:32 51°21.264 2°34.119 -999 0.082541 0.392248  
2002-04-22 08:19:37 51°21.266 2°34.091 -999 0.082541 0.392253  
2002-04-22 08:19:42 51°21.268 2°34.063 -999 0.082442 0.391785  
2002-04-22 08:19:47 51°21.27 2°34.035 -999 0.082442 0.391795  
2002-04-22 08:19:52 51°21.273 2°34.007 -999 0.082442 0.391795  
2002-04-22 08:19:57 51°21.275 2°33.979 -999 0.082442 0.391795  
2002-04-22 08:20:02 51°21.277 2°33.95 -999 0.082442 0.391811  
2002-04-22 08:20:08 51°21.28 2°33.917 -999 0.082541 0.392305  
2002-04-22 08:20:12 51°21.282 2°33.894 -999 0.082442 0.391831  
2002-04-22 08:20:18 51°21.285 2°33.86 -999 0.082442 0.391842  
2002-04-22 08:20:22 51°21.286 2°33.838 -999 0.082442 0.391842  
2002-04-22 08:20:28 51°21.289 2°33.804 -999 0.082442 0.391847  
2002-04-22 08:20:32 51°21.291 2°33.782 -999 0.082442 0.391863  
2002-04-22 08:20:37 51°21.293 2°33.754 -999 0.082442 0.391873  
2002-04-22 08:20:42 51°21.296 2°33.726 -999 0.082442 0.391878  
2002-04-22 08:20:47 51°21.298 2°33.697 -999 0.082442 0.391894  
2002-04-22 08:20:52 51°21.3 2°33.669 -999 0.082442 0.391894  
2002-04-22 08:20:57 51°21.303 2°33.641 -999 0.082442 0.391899  
2002-04-22 08:21:02 51°21.306 2°33.612 -999 0.082442 0.391909  
2002-04-22 08:21:07 51°21.308 2°33.584 -999 0.082442 0.39192  
2002-04-22 08:21:12 51°21.311 2°33.556 -999 0.082442 0.39193  
2002-04-22 08:21:17 51°21.313 2°33.528 -999 0.082442 0.39194  
2002-04-22 08:21:22 51°21.316 2°33.5 -999 0.082442 0.39194  
2002-04-22 08:21:27 51°21.318 2°33.471 -999 0.082442 0.391951  
2002-04-22 08:21:32 51°21.321 2°33.443 -999 0.082442 0.391956  
2002-04-22 08:21:38 51°21.324 2°33.409 -999 0.082442 0.391966  
2002-04-22 08:21:42 51°21.325 2°33.386 -999 0.082442 0.391982  
2002-04-22 08:21:48 51°21.328 2°33.352 -999 0.082442 0.391987  
2002-04-22 08:21:53 51°21.33 2°33.323 -999 0.082442 0.391987  
2002-04-22 08:21:57 51°21.333 2°33.3 -999 0.082442 0.391992  
2002-04-22 08:22:02 51°21.335 2°33.272 -999 0.082442 0.392013  
2002-04-22 08:22:07 51°21.339 2°33.244 -999 0.082442 0.392013  
2002-04-22 08:22:12 51°21.343 2°33.215 -999 0.082442 0.392029  
2002-04-22 08:22:18 51°21.348 2°33.181 -999 0.082442 0.392044  
2002-04-22 08:22:22 51°21.351 2°33.159 -999 0.082442 0.392044  
2002-04-22 08:22:27 51°21.357 2°33.13 -999 0.082442 0.39205  
2002-04-22 08:22:32 51°21.362 2°33.102 -999 0.082442 0.39206  
2002-04-22 08:22:37 51°21.367 2°33.074 -999 0.082442 0.39207  
2002-04-22 08:22:43 51°21.373 2°33.04 -999 0.082442 0.392081  
2002-04-22 08:22:48 51°21.378 2°33.012 -999 0.082344 0.391612  
2002-04-22 08:22:52 51°21.382 2°32.99 -999 0.082344 0.391612  
2002-04-22 08:22:57 51°21.387 2°32.961 -999 0.082344 0.391618  
2002-04-22 08:23:02 51°21.392 2°32.933 -999 0.082344 0.391633  
2002-04-22 08:23:07 51°21.397 2°32.905 -999 0.082344 0.391644  
2002-04-22 08:23:12 51°21.402 2°32.876 -999 0.082442 0.392122  
2002-04-22 08:23:17 51°21.408 2°32.849 -999 0.082344 0.391654  
2002-04-22 08:23:22 51°21.415 2°32.821 -999 0.082344 0.391654  
2002-04-22 08:23:28 51°21.424 2°32.788 -999 0.082344 0.391664  
2002-04-22 08:23:33 51°21.431 2°32.761 -999 0.082344 0.391675  
2002-04-22 08:23:38 51°21.44 2°32.735 -999 0.082344 0.39169  
2002-04-22 08:23:43 51°21.448 2°32.708 -999 0.082344 0.391695  
2002-04-22 08:23:48 51°21.457 2°32.682 -999 0.082344 0.391716  
2002-04-22 08:23:52 51°21.465 2°32.662 -999 0.082344 0.391716  
2002-04-22 08:23:57 51°21.475 2°32.637 -999 0.082344 0.391711  
2002-04-22 08:24:02 51°21.485 2°32.612 -999 0.082344 0.391732  
2002-04-22 08:24:08 51°21.496 2°32.582 -999 0.082344 0.391747  
2002-04-22 08:24:12 51°21.503 2°32.561 -999 0.082344 0.391758  
2002-04-22 08:24:18 51°21.514 2°32.531 -999 0.082344 0.391763  
2002-04-22 08:24:22 51°21.52 2°32.51 -999 0.082344 0.391763  
2002-04-22 08:24:28 51°21.53 2°32.479 -999 0.082344 0.391773  
2002-04-22 08:24:32 51°21.534 2°32.457 -999 0.082344 0.391794  
2002-04-22 08:24:38 51°21.543 2°32.425 -999 0.082344 0.391794  
2002-04-22 08:24:42 51°21.547 2°32.403 -999 0.082344 0.39182  
2002-04-22 08:24:47 51°21.555 2°32.376 -999 0.082344 0.39182  
2002-04-22 08:24:53 51°21.561 2°32.343 -999 0.082344 0.39182  
2002-04-22 08:24:57 51°21.567 2°32.322 -999 0.082344 0.391831  
2002-04-22 08:25:02 51°21.572 2°32.294 -999 0.082344 0.391841  
2002-04-22 08:25:07 51°21.579 2°32.267 -999 0.082344 0.391846  
2002-04-22 08:25:12 51°21.584 2°32.239 -999 0.082344 0.391862  
2002-04-22 08:25:18 51°21.592 2°32.206 -999 0.082344 0.391862  
2002-04-22 08:25:22 51°21.596 2°32.184 -999 0.082344 0.391862  
2002-04-22 08:25:28 51°21.604 2°32.151 -999 0.082344 0.391872  
2002-04-22 08:25:32 51°21.608 2°32.129 -999 0.082344 0.391883  
2002-04-22 08:25:37 51°21.615 2°32.102 -999 0.082344 0.391893  
2002-04-22 08:25:42 51°21.622 2°32.075 -999 0.082344 0.391898  
2002-04-22 08:25:47 51°21.63 2°32.049 -999 0.082344 0.391909  
2002-04-22 08:25:52 51°21.637 2°32.023 -999 0.082344 0.391909  
2002-04-22 08:25:57 51°21.647 2°31.998 -999 0.082344 0.391909  
2002-04-22 08:26:02 51°21.656 2°31.973 -999 0.082245 0.39145  
2002-04-22 08:26:07 51°21.666 2°31.949 -999 0.082344 0.39194  
2002-04-22 08:26:12 51°21.676 2°31.924 -999 0.082344 0.39195  
2002-04-22 08:26:17 51°21.688 2°31.902 -999 0.082344 0.391961  
2002-04-22 08:26:22 51°21.699 2°31.879 -999 0.082344 0.391961  
2002-04-22 08:26:28 51°21.714 2°31.853 -999 0.082245 0.391487  
2002-04-22 08:26:32 51°21.724 2°31.835 -999 0.082344 0.391982  
2002-04-22 08:26:37 51°21.737 2°31.815 -999 0.082245 0.391507  
2002-04-22 08:26:42 51°21.75 2°31.794 -999 0.082245 0.391528  
2002-04-22 08:26:48 51°21.767 2°31.771 -999 0.082245 0.391523  
2002-04-22 08:26:52 51°21.778 2°31.755 -999 0.082245 0.391523  
2002-04-22 08:26:57 51°21.793 2°31.737 -999 0.082245 0.391539  
2002-04-22 08:27:02 51°21.807 2°31.718 -999 0.082245 0.391554  
2002-04-22 08:27:08 51°21.826 2°31.698 -999 0.082245 0.391559  
2002-04-22 08:27:12 51°21.839 2°31.685 -999 0.082245 0.39158  
2002-04-22 08:27:17 51°21.855 2°31.669 -999 0.082245 0.391575  
2002-04-22 08:27:23 51°21.875 2°31.652 -999 0.082245 0.391575  
2002-04-22 08:27:28 51°21.891 2°31.637 -999 0.082245 0.391612  
2002-04-22 08:27:32 51°21.905 2°31.627 -999 0.082245 0.391606  
2002-04-22 08:27:37 51°21.921 2°31.612 -999 0.082245 0.391622  
2002-04-22 08:27:42 51°21.939 2°31.6 -999 0.082245 0.391617  
2002-04-22 08:27:47 51°21.956 2°31.586 -999 0.082245 0.391632  
2002-04-22 08:27:52 51°21.974 2°31.576 -999 0.082245 0.391632  
2002-04-22 08:27:57 51°21.992 2°31.564 -999 0.082245 0.391638  
2002-04-22 08:28:02 51°22.01 2°31.553 -999 0.082245 0.391648  
2002-04-22 08:28:08 51°22.032 2°31.54 -999 0.082245 0.391664  
2002-04-22 08:28:12 51°22.047 2°31.532 -999 0.082245 0.391669  
2002-04-22 08:28:18 51°22.07 2°31.522 -999 0.082245 0.39169  
2002-04-22 08:28:22 51°22.084 2°31.515 -999 0.082245 0.39169  
2002-04-22 08:28:27 51°22.104 2°31.509 -999 0.082245 0.391684  
2002-04-22 08:28:32 51°22.123 2°31.499 -999 0.082245 0.39171  
2002-04-22 08:28:38 51°22.146 2°31.492 -999 0.082245 0.391705  
2002-04-22 08:28:42 51°22.161 2°31.484 -999 0.082245 0.391726  
2002-04-22 08:28:47 51°22.181 2°31.479 -999 0.082245 0.391731  
2002-04-22 08:28:52 51°22.2 2°31.469 -999 0.082245 0.391731  
2002-04-22 08:28:57 51°22.219 2°31.464 -999 0.082245 0.391736  
2002-04-22 08:29:02 51°22.238 2°31.454 -999 0.082245 0.391763  
2002-04-22 08:29:08 51°22.262 2°31.447 -999 0.082245 0.391752  
2002-04-22 08:29:12 51°22.276 2°31.439 -999 0.082245 0.391789  
2002-04-22 08:29:18 51°22.3 2°31.431 -999 0.082245 0.391778  
2002-04-22 08:29:22 51°22.314 2°31.423 -999 0.082245 0.391778  
2002-04-22 08:29:27 51°22.334 2°31.416 -999 0.082245 0.391794  
2002-04-22 08:29:32 51°22.353 2°31.407 -999 0.082245 0.391804  
2002-04-22 08:29:37 51°22.371 2°31.399 -999 0.082245 0.391799  
2002-04-22 08:29:42 51°22.39 2°31.391 -999 0.082245 0.39183  
2002-04-22 08:29:47 51°22.408 2°31.381 -999 0.082146 0.391335  
2002-04-22 08:29:52 51°22.428 2°31.373 -999 0.082146 0.391335  
2002-04-22 08:29:58 51°22.449 2°31.359 49.951528 0.082146 0.391366  
2002-04-22 08:30:03 51°22.467 2°31.349 -999 0.082146 0.391356  
2002-04-22 08:30:08 51°22.484 2°31.335 49.857806 0.082146 0.391387  
2002-04-22 08:30:12 51°22.498 2°31.326 -999 0.082146 0.391382  
2002-04-22 08:30:18 51°22.518 2°31.307 -999 0.082146 0.391392  
2002-04-22 08:30:22 51°22.531 2°31.296 -999 0.082146 0.391392  
2002-04-22 08:30:27 51°22.546 2°31.279 -999 0.082146 0.391403  
2002-04-22 08:30:32 51°22.562 2°31.263 -999 0.082146 0.391408  
2002-04-22 08:30:38 51°22.578 2°31.24 49.979119 0.082146 0.391429  
2002-04-22 08:30:42 51°22.589 2°31.224 -999 0.082146 0.391429  
2002-04-22 08:30:47 51°22.601 2°31.203 49.959842 0.082146 0.391449  
2002-04-22 08:30:52 51°22.612 2°31.181 49.959842 0.082146 0.391449  
2002-04-22 08:30:57 51°22.623 2°31.159 -999 0.082146 0.391444  
2002-04-22 08:31:02 51°22.633 2°31.136 -999 0.082146 0.391455  
2002-04-22 08:31:08 51°22.645 2°31.107 49.665462 0.082146 0.391465  
2002-04-22 08:31:12 51°22.652 2°31.088 -999 0.082146 0.391465  
2002-04-22 08:31:17 51°22.661 2°31.064 49.254417 0.082146 0.391486  
2002-04-22 08:31:22 51°22.668 2°31.038 49.254417 0.082146 0.391486  
2002-04-22 08:31:28 51°22.676 2°31.008 -999 0.082146 0.391491  
2002-04-22 08:31:33 51°22.682 2°30.982 49.455583 0.082146 0.391507  
2002-04-22 08:31:38 51°22.687 2°30.956 49.222557 0.082146 0.391517  
2002-04-22 08:31:43 51°22.692 2°30.929 48.851974 0.082146 0.391522  
2002-04-22 08:31:47 51°22.695 2°30.908 49.535665 0.082146 0.391528  
2002-04-22 08:31:52 51°22.697 2°30.881 49.535665 0.082146 0.391528  
2002-04-22 08:31:57 51°22.701 2°30.855 49.444193 0.082146 0.391538  
2002-04-22 08:32:02 51°22.702 2°30.828 49.282229 0.082146 0.391548  
2002-04-22 08:32:07 51°22.704 2°30.801 49.696468 0.082146 0.391548  
2002-04-22 08:32:12 51°22.705 2°30.774 49.724916 0.082146 0.391564  
2002-04-22 08:32:17 51°22.707 2°30.747 49.512737 0.082146 0.391574  
2002-04-22 08:32:22 51°22.707 2°30.72 49.512737 0.082146 0.391574  
2002-04-22 08:32:27 51°22.708 2°30.693 49.572044 0.082146 0.391574  
2002-04-22 08:32:32 51°22.709 2°30.666 48.866015 0.082146 0.391601  
2002-04-22 08:32:38 51°22.71 2°30.634 49.32272 0.082146 0.391606  
2002-04-22 08:32:42 51°22.71 2°30.612 49.169422 0.082146 0.391621  
2002-04-22 08:32:47 51°22.711 2°30.585 49.117203 0.082146 0.391627  
2002-04-22 08:32:53 51°22.711 2°30.553 49.117203 0.082146 0.391627  
2002-04-22 08:32:58 51°22.712 2°30.526 48.909691 0.082146 0.391632  
2002-04-22 08:33:02 51°22.713 2°30.504 48.347611 0.082146 0.391647  
2002-04-22 08:33:07 51°22.714 2°30.477 49.055465 0.082146 0.391653  
2002-04-22 08:33:12 51°22.714 2°30.451 48.725779 0.082146 0.391679  
2002-04-22 08:33:18 51°22.714 2°30.419 48.978879 0.082146 0.391684  
2002-04-22 08:33:22 51°22.713 2°30.398 48.978879 0.082146 0.391684  
2002-04-22 08:33:28 51°22.713 2°30.366 48.54594 0.082146 0.3917  
2002-04-22 08:33:32 51°22.712 2°30.344 48.677666 0.082146 0.39171  
2002-04-22 08:33:37 51°22.711 2°30.318 48.814901 0.082146 0.39172  
2002-04-22 08:33:42 51°22.709 2°30.291 48.683524 0.082047 0.391251  
2002-04-22 08:33:47 51°22.708 2°30.265 48.814537 0.082047 0.391256  
2002-04-22 08:33:52 51°22.707 2°30.238 48.814537 0.082047 0.391256  
2002-04-22 08:33:57 51°22.705 2°30.211 48.877845 0.082047 0.391261  
2002-04-22 08:34:02 51°22.704 2°30.185 49.210941 0.082047 0.391277  
2002-04-22 08:34:07 51°22.703 2°30.158 48.139295 0.082047 0.391287  
2002-04-22 08:34:12 51°22.702 2°30.131 48.56194 0.082047 0.391298  
2002-04-22 08:34:17 51°22.701 2°30.104 49.023281 0.082047 0.391313  
2002-04-22 08:34:22 51°22.701 2°30.077 49.023281 0.082047 0.391313  
2002-04-22 08:34:28 51°22.699 2°30.045 48.328223 0.082047 0.391324  
2002-04-22 08:34:32 51°22.699 2°30.024 48.684084 0.082047 0.391339  
2002-04-22 08:34:37 51°22.698 2°29.997 48.578778 0.082047 0.391345  
2002-04-22 08:34:43 51°22.697 2°29.965 49.025682 0.082047 0.391355  
2002-04-22 08:34:48 51°22.697 2°29.938 48.575804 0.082047 0.391365  
2002-04-22 08:34:52 51°22.696 2°29.917 48.575804 0.082047 0.391365  
2002-04-22 08:34:57 51°22.695 2°29.89 48.448673 0.082047 0.391376  
2002-04-22 08:35:02 51°22.695 2°29.863 48.735555 0.082047 0.391397  
2002-04-22 08:35:08 51°22.694 2°29.831 48.348146 0.082047 0.391397  
2002-04-22 08:35:12 51°22.694 2°29.81 49.07204 0.082047 0.391412  
2002-04-22 08:35:18 51°22.693 2°29.778 48.674947 0.082047 0.391428  
2002-04-22 08:35:22 51°22.692 2°29.756 48.674947 0.082047 0.391428  
2002-04-22 08:35:27 51°22.691 2°29.73 48.033127 0.082047 0.391433  
2002-04-22 08:35:32 51°22.691 2°29.703 47.883221 0.082047 0.391444  
2002-04-22 08:35:38 51°22.69 2°29.671 48.133569 0.082047 0.391454  
2002-04-22 08:35:42 51°22.69 2°29.65 47.569597 0.082047 0.39147  
2002-04-22 08:35:47 51°22.689 2°29.623 48.144823 0.082047 0.391475  
2002-04-22 08:35:52 51°22.688 2°29.597 48.144823 0.082047 0.391475  
2002-04-22 08:35:57 51°22.688 2°29.57 48.334893 0.082047 0.391485  
2002-04-22 08:36:02 51°22.687 2°29.543 47.92567 0.082047 0.391496  
2002-04-22 08:36:07 51°22.686 2°29.517 47.644429 0.082047 0.391511  
2002-04-22 08:36:12 51°22.685 2°29.491 47.635011 0.082047 0.391522  
2002-04-22 08:36:17 51°22.685 2°29.464 47.843695 0.082047 0.391527  
2002-04-22 08:36:22 51°22.684 2°29.438 47.843695 0.082047 0.391527